TimeHDT,TemperatureF,Dew PointF,Humidity,Sea Level PressureIn,VisibilityMPH,Wind Direction,Wind SpeedMPH,Gust SpeedMPH,PrecipitationIn,Events,Conditions,WindDirDegrees,DateUTC
12:01 AM,50.0,44.1,80,29.48,10.0,North,-9999.0,-,0.00,Rain,Light Rain,0,2012-10-12 09:01:00
1:01 AM,48.9,44.1,83,29.48,10.0,North,-9999.0,-,0.00,Rain,Light Rain,0,2012-10-12 10:01:00
2:01 AM,48.9,43.0,80,29.48,10.0,North,-9999.0,-,0.02,Rain,Light Rain,0,2012-10-12 11:01:00
3:01 AM,48.0,44.1,86,29.46,10.0,North,-9999.0,-,0.02,Rain,Light Rain,0,2012-10-12 12:01:00
3:40 AM,46.4,44.6,93,29.18,10.0,North,-9999.0,-,0.01,Rain,Light Rain,0,2012-10-12 12:40:00
4:01 AM,46.9,45.0,93,29.44,10.0,North,-9999.0,-,0.01,Rain,Light Rain,0,2012-10-12 13:01:00
4:08 AM,46.4,44.6,93,29.17,10.0,North,-9999.0,-,0.00,Rain,Light Rain,0,2012-10-12 13:08:00
5:01 AM,46.0,45.0,96,29.43,10.0,North,-9999.0,-,0.01,Rain,Light Rain,0,2012-10-12 14:01:00
5:50 AM,46.4,44.6,93,29.15,10.0,North,-9999.0,-,0.00,Rain,Light Rain,0,2012-10-12 14:50:00
6:01 AM,46.0,45.0,96,29.42,10.0,North,-9999.0,-,0.00,Rain,Light Rain,0,2012-10-12 15:01:00
6:50 AM,46.4,44.6,93,29.15,10.0,North,-9999.0,-,0.00,Rain,Light Rain,0,2012-10-12 15:50:00
7:01 AM,46.0,44.1,93,29.43,10.0,North,-9999.0,-,0.00,Rain,Light Rain,0,2012-10-12 16:01:00
7:50 AM,46.4,44.6,93,29.15,10.0,North,-9999.0,-,0.02,Rain,Light Rain,0,2012-10-12 16:50:00
8:01 AM,46.9,45.0,93,29.42,10.0,North,-9999.0,-,0.02,Rain,Light Rain,0,2012-10-12 17:01:00
9:01 AM,46.0,45.0,96,29.43,10.0,North,-9999.0,-,0.02,Rain,Light Rain,0,2012-10-12 18:01:00
10:01 AM,46.9,45.0,93,29.44,10.0,North,-9999.0,-,0.01,,Overcast,0,2012-10-12 19:01:00
10:18 AM,46.4,44.6,93,29.16,10.0,North,-9999.0,-,0.00,Rain,Light Rain,0,2012-10-12 19:18:00
10:33 AM,46.4,44.6,93,29.16,10.0,North,-9999.0,-,0.00,Rain,Light Rain,0,2012-10-12 19:33:00
11:01 AM,46.9,45.0,93,29.44,10.0,North,-9999.0,-,0.01,Rain,Light Rain,0,2012-10-12 20:01:00
12:01 PM,46.9,45.0,93,29.44,8.0,North,-9999.0,-,0.00,,Overcast,0,2012-10-12 21:01:00
12:50 PM,46.4,44.6,93,29.16,8.0,North,-9999.0,-,0.00,Rain,Light Rain,0,2012-10-12 21:50:00
1:01 PM,46.9,44.1,90,29.44,9.0,North,-9999.0,-,0.00,,Overcast,0,2012-10-12 22:01:00
1:41 PM,46.4,42.8,87,29.17,7.0,North,-9999.0,-,N/A,,Overcast,0,2012-10-12 22:41:00
2:01 PM,46.0,43.0,89,29.44,7.0,North,-9999.0,-,N/A,,Overcast,0,2012-10-12 23:01:00
3:01 PM,46.0,43.0,89,29.44,10.0,North,-9999.0,-,N/A,,Overcast,0,2012-10-13 00:01:00
3:12 PM,46.4,42.8,87,29.16,10.0,North,-9999.0,-,N/A,,Overcast,0,2012-10-13 00:12:00
4:01 PM,46.0,42.1,86,29.43,10.0,North,-9999.0,-,N/A,,Overcast,0,2012-10-13 01:01:00
5:01 PM,45.0,41.0,86,29.44,8.0,North,-9999.0,-,N/A,,Overcast,0,2012-10-13 02:01:00
6:01 PM,45.0,39.9,82,29.44,10.0,North,-9999.0,-,N/A,,Overcast,0,2012-10-13 03:01:00
7:01 PM,44.1,39.0,82,29.45,10.0,North,-9999.0,-,N/A,,Overcast,0,2012-10-13 04:01:00
8:01 PM,44.1,36.0,73,29.46,10.0,North,-9999.0,-,N/A,,Overcast,0,2012-10-13 05:01:00
9:01 PM,43.0,36.0,76,29.47,10.0,North,-9999.0,-,N/A,,Partly Cloudy,0,2012-10-13 06:01:00
9:21 PM,42.8,35.6,76,29.20,10.0,North,-9999.0,-,N/A,,Mostly Cloudy,0,2012-10-13 06:21:00
10:01 PM,42.1,36.0,79,29.48,10.0,North,-9999.0,-,N/A,,Mostly Cloudy,0,2012-10-13 07:01:00
10:08 PM,42.8,35.6,76,29.20,10.0,North,-9999.0,-,N/A,,Scattered Clouds,0,2012-10-13 07:08:00
10:52 PM,42.8,35.6,76,29.22,10.0,North,-9999.0,-,N/A,,Mostly Cloudy,0,2012-10-13 07:52:00
11:01 PM,42.1,35.1,76,29.50,10.0,North,-9999.0,-,N/A,,Mostly Cloudy,0,2012-10-13 08:01:00